{"data":{"norad_id":59867,"epoch":"2026-09-21T09:15:12.684672Z","epoch_age_seconds":97955,"freshness":"FRESH","line1":"1 59867U 24098K   26264.38556348  .00000833  00000+0  39808-4 0  9995","line2":"2 59867  43.0020 252.9527 0001115 270.8853  89.1871 15.27578549131775","mean_motion":15.27578549,"eccentricity":0.0001115,"inclination_deg":43.002,"raan_deg":252.9527,"arg_perigee_deg":270.8853,"mean_anomaly_deg":89.1871,"bstar":3.9808e-5,"rev_number":13177,"period_min":94.266838254744,"perigee_km":482.28841812493,"apogee_km":483.81846359324,"semimajor_km":6861.1904408591,"source":"CELESTRAK","updated_at":"2026-09-22T09:00:49.102083Z"}}